QPF
0.01 0.04 0.05 0.06 0.03 0.02 0.03 0.06 0.03 0.03 0.02 0.02 0.02 0.02 0.02 0.03 0.03 0.07 0.10 0.03 0.03 0.07 0.12 0.20 0.25 0.25 0.27 0.29 0.27 0.26 0.27 0.28 0.23 0.13 0.07 0.03 0.01 0.00 0.00 0.00 0.00 0.00 0.00
0.06 0.09 0.08 0.09 0.06 0.04 0.05 0.07 0.06 0.05 0.03 0.02 0.01 0.00 0.00 0.01 0.01 0.02 0.04 0.03 0.01 0.01 0.02 0.05 0.11 0.17 0.24 0.27 0.26 0.23 0.26 0.30 0.30 0.19 0.10 0.04 0.01 0.00 0.00 0.00 0.00 0.00 0.00
0.09 0.11 0.08 0.08 0.07 0.06 0.10 0.12 0.09 0.07 0.03 0.01 0.00 0.00 0.00 0.01 0.01 0.01 0.00 0.01 0.00 0.00 0.00 0.00 0.02 0.06 0.11 0.15 0.18 0.22 0.25 0.29 0.33 0.26 0.15 0.08 0.03 0.01 0.00 0.00 0.00 0.00 0.00
0.07 0.12 0.09 0.06 0.07 0.08 0.11 0.13 0.10 0.06 0.03 0.01 0.00 0.01 0.01 0.01 0.01 0.00 0.00 0.00 0.00 0.00 0.00 0.00 0.00 0.01 0.04 0.06 0.09 0.17 0.26 0.29 0.32 0.31 0.21 0.14 0.08 0.04 0.01 0.00 0.00 0.00 0.00
0.06 0.14 0.13 0.11 0.06 0.09 0.09 0.07 0.04 0.04 0.03 0.03 0.01 0.01 0.00 0.00 0.01 0.00 0.00 0.00 0.00 0.00 0.00 0.00 0.00 0.00 0.01 0.03 0.05 0.11 0.23 0.30 0.30 0.33 0.30 0.23 0.17 0.09 0.03 0.01 0.00 0.00 0.00
0.07 0.15 0.15 0.14 0.08 0.11 0.11 0.08 0.07 0.08 0.05 0.04 0.01 0.00 0.00 0.00 0.00 0.00 0.00 0.00 0.00 0.00 0.00 0.00 0.00 0.00 0.00 0.00 0.01 0.04 0.15 0.29 0.33 0.35 0.39 0.37 0.31 0.21 0.08 0.02 0.00 0.00 0.00
0.10 0.18 0.16 0.19 0.15 0.13 0.13 0.08 0.09 0.07 0.06 0.03 0.01 0.01 0.00 0.00 0.00 0.00 0.00 0.00 0.00 0.00 0.00 0.00 0.01 0.01 0.01 0.01 0.01 0.01 0.08 0.27 0.35 0.38 0.49 0.60 0.60 0.44 0.19 0.05 0.01 0.00 0.00
0.13 0.15 0.22 0.21 0.18 0.16 0.16 0.15 0.13 0.08 0.06 0.04 0.03 0.02 0.01 0.01 0.01 0.00 0.00 0.00 0.00 0.00 0.00 0.00 0.00 0.01 0.01 0.03 0.03 0.01 0.05 0.20 0.35 0.44 0.66 0.98 1.07 0.69 0.31 0.11 0.02 0.01 0.00
0.14 0.16 0.18 0.20 0.19 0.18 0.20 0.23 0.16 0.12 0.09 0.08 0.07 0.05 0.03 0.02 0.01 0.00 0.01 0.00 0.00 0.00 0.00 0.00 0.00 0.00 0.00 0.02 0.06 0.05 0.02 0.08 0.22 0.51 0.91 1.34 1.28 0.74 0.34 0.15 0.04 0.01 0.00
0.12 0.13 0.16 0.19 0.22 0.20 0.21 0.19 0.14 0.17 0.13 0.13 0.12 0.10 0.07 0.04 0.03 0.02 0.01 0.01 0.00 0.00 0.00 0.00 0.00 0.00 0.00 0.02 0.04 0.03 0.01 0.02 0.08 0.29 0.68 0.91 0.81 0.53 0.30 0.16 0.05 0.02 0.01
0.09 0.09 0.12 0.17 0.18 0.18 0.19 0.17 0.17 0.19 0.17 0.16 0.15 0.11 0.09 0.08 0.05 0.05 0.04 0.03 0.01 0.00 0.00 0.00 0.00 0.00 0.01 0.03 0.05 0.02 0.00 0.01 0.04 0.09 0.22 0.33 0.35 0.28 0.16 0.08 0.03 0.01 0.01
0.09 0.08 0.08 0.10 0.12 0.13 0.16 0.16 0.16 0.19 0.18 0.16 0.14 0.10 0.09 0.07 0.08 0.07 0.06 0.06 0.04 0.00 0.00 0.00 0.00 0.00 0.01 0.03 0.01 0.00 0.01 0.02 0.02 0.03 0.06 0.09 0.08 0.07 0.04 0.01 0.00 0.00 0.00
0.12 0.10 0.08 0.06 0.06 0.06 0.09 0.10 0.10 0.13 0.12 0.12 0.11 0.09 0.06 0.05 0.06 0.06 0.06 0.06 0.06 0.02 0.02 0.00 0.00 0.00 0.00 0.02 0.01 0.01 0.01 0.01 0.01 0.01 0.01 0.02 0.02 0.01 0.00 0.00 0.00 0.00 0.00
0.14 0.11 0.09 0.06 0.04 0.04 0.04 0.04 0.06 0.07 0.06 0.06 0.05 0.06 0.05 0.04 0.05 0.06 0.07 0.10 0.12 0.12 0.11 0.07 0.01 0.00 0.00 0.00 0.01 0.01 0.01 0.01 0.00 0.00 0.00 0.00 0.00 0.00 0.00 0.00 0.00 0.00 0.00
0.09 0.07 0.06 0.05 0.04 0.03 0.03 0.03 0.04 0.04 0.04 0.03 0.04 0.05 0.06 0.07 0.08 0.08 0.10 0.14 0.16 0.18 0.22 0.20 0.07 0.01 0.00 0.00 0.00 0.01 0.00 0.00 0.00 0.00 0.00 0.00 0.00 0.00 0.00 0.00 0.00 0.00 0.00
0.04 0.03 0.04 0.03 0.03 0.02 0.01 0.01 0.01 0.01 0.02 0.04 0.05 0.05 0.07 0.10 0.12 0.15 0.18 0.19 0.18 0.20 0.24 0.23 0.16 0.05 0.01 0.00 0.00 0.00 0.00 0.00 0.00 0.00 0.00 0.00 0.00 0.00 0.00 0.00 0.00 0.00 0.00
0.01 0.01 0.01 0.01 0.01 0.01 0.00 0.00 0.00 0.01 0.02 0.03 0.04 0.04 0.06 0.10 0.15 0.20 0.22 0.22 0.21 0.22 0.26 0.28 0.22 0.13 0.07 0.03 0.01 0.00 0.00 0.00 0.00 0.00 0.00 0.00 0.00 0.00 0.00 0.00 0.00 0.00 0.00
0.00 0.00 0.00 0.00 0.00 0.00 0.00 0.00 0.00 0.01 0.01 0.02 0.02 0.03 0.04 0.08 0.13 0.18 0.20 0.24 0.28 0.29 0.30 0.33 0.31 0.22 0.14 0.06 0.03 0.02 0.00 0.00 0.00 0.00 0.00 0.00 0.00 0.00 0.00 0.00 0.00 0.00 0.00
0.00 0.00 0.00 0.00 0.00 0.00 0.00 0.00 0.00 0.01 0.01 0.01 0.01 0.01 0.03 0.05 0.10 0.16 0.18 0.23 0.27 0.24 0.26 0.28 0.30 0.23 0.18 0.10 0.09 0.06 0.03 0.04 0.01 0.00 0.00 0.00 0.00 0.00 0.00 0.00 0.00 0.00 0.00
0.00 0.00 0.00 0.00 0.00 0.00 0.00 0.01 0.01 0.01 0.01 0.01 0.01 0.01 0.03 0.04 0.08 0.11 0.14 0.16 0.18 0.18 0.16 0.19 0.23 0.21 0.19 0.17 0.17 0.14 0.11 0.10 0.06 0.02 0.02 0.00 0.00 0.00 0.00 0.00 0.00 0.00 0.00
0.00 0.00 0.00 0.00 0.00 0.00 0.00 0.01 0.01 0.01 0.01 0.01 0.01 0.02 0.03 0.04 0.05 0.07 0.10 0.12 0.13 0.15 0.15 0.17 0.19 0.19 0.19 0.19 0.18 0.15 0.14 0.14 0.11 0.07 0.09 0.06 0.05 0.05 0.03 0.01 0.01 0.01 0.01
0.00 0.00 0.00 0.00 0.00 0.00 0.00 0.00 0.00 0.00 0.00 0.01 0.01 0.01 0.01 0.02 0.03 0.05 0.07 0.08 0.09 0.13 0.17 0.20 0.19 0.19 0.18 0.16 0.15 0.13 0.14 0.15 0.15 0.11 0.14 0.14 0.11 0.11 0.08 0.05 0.04 0.02 0.02
0.00 0.00 0.00 0.00 0.00 0.00 0.00 0.00 0.00 0.00 0.00 0.00 0.00 0.00 0.00 0.00 0.01 0.01 0.03 0.03 0.04 0.05 0.07 0.12 0.15 0.13 0.11 0.11 0.12 0.13 0.13 0.14 0.15 0.10 0.13 0.18 0.15 0.12 0.06 0.07 0.06 0.03 0.02
0.00 0.00 0.00 0.00 0.00 0.00 0.00 0.00 0.00 0.00 0.00 0.00 0.00 0.00 0.00 0.00 0.00 0.00 0.00 0.01 0.01 0.01 0.02 0.03 0.05 0.05 0.05 0.07 0.09 0.12 0.12 0.10 0.09 0.07 0.09 0.19 0.16 0.12 0.05 0.04 0.04 0.03 0.02
0.01 0.00 0.00 0.01 0.00 0.00 0.00 0.00 0.00 0.00 0.00 0.00 0.00 0.00 0.00 0.00 0.00 0.00 0.00 0.00 0.00 0.00 0.00 0.00 0.01 0.02 0.03 0.04 0.05 0.08 0.10 0.12 0.15 0.10 0.06 0.12 0.12 0.10 0.07 0.05 0.03 0.02 0.01
0.02 0.01 0.02 0.01 0.01 0.01 0.00 0.00 0.00 0.00 0.00 0.00 0.00 0.00 0.00 0.00 0.00 0.00 0.00 0.00 0.00 0.00 0.00 0.00 0.00 0.00 0.01 0.01 0.02 0.03 0.05 0.08 0.13 0.11 0.05 0.06 0.06 0.07 0.08 0.04 0.01 0.01 0.00
MSLP
1015.87 1015.96 1016.00 1016.00 1015.97 1015.93 1015.90 1015.88 1015.87 1015.85 1015.79 1015.71 1015.58 1015.44 1015.29 1015.17 1015.11 1015.11 1015.19 1015.32 1015.47 1015.61 1015.71 1015.76 1015.76 1015.71 1015.67 1015.65 1015.70 1015.83 1016.06 1016.38 1016.78 1017.22 1017.69 1018.16 1018.60 1019.00 1019.35 1019.65 1019.91 1020.12 1020.30
1015.75 1015.84 1015.88 1015.86 1015.81 1015.76 1015.71 1015.68 1015.66 1015.64 1015.60 1015.52 1015.41 1015.27 1015.12 1014.98 1014.88 1014.85 1014.89 1014.98 1015.10 1015.23 1015.32 1015.37 1015.36 1015.30 1015.21 1015.14 1015.12 1015.19 1015.36 1015.64 1016.03 1016.50 1017.03 1017.57 1018.11 1018.62 1019.07 1019.46 1019.79 1020.06 1020.28
1015.71 1015.80 1015.82 1015.80 1015.74 1015.67 1015.61 1015.57 1015.55 1015.54 1015.50 1015.44 1015.33 1015.19 1015.02 1014.85 1014.71 1014.62 1014.61 1014.65 1014.74 1014.84 1014.93 1014.96 1014.94 1014.85 1014.73 1014.60 1014.52 1014.50 1014.60 1014.84 1015.20 1015.69 1016.26 1016.89 1017.53 1018.15 1018.72 1019.22 1019.64 1019.99 1020.27
1015.72 1015.80 1015.82 1015.78 1015.71 1015.63 1015.56 1015.52 1015.50 1015.49 1015.47 1015.41 1015.31 1015.15 1014.96 1014.75 1014.56 1014.41 1014.33 1014.32 1014.36 1014.43 1014.49 1014.51 1014.46 1014.35 1014.18 1013.99 1013.83 1013.75 1013.78 1013.97 1014.31 1014.81 1015.42 1016.13 1016.87 1017.60 1018.29 1018.91 1019.44 1019.88 1020.24
1015.75 1015.82 1015.83 1015.78 1015.69 1015.60 1015.53 1015.48 1015.46 1015.46 1015.45 1015.40 1015.29 1015.13 1014.91 1014.66 1014.41 1014.20 1014.06 1013.98 1013.97 1013.99 1014.01 1013.99 1013.91 1013.76 1013.55 1013.31 1013.09 1012.94 1012.92 1013.06 1013.39 1013.90 1014.56 1015.34 1016.17 1017.01 1017.81 1018.55 1019.19 1019.73 1020.18
1015.77 1015.83 1015.81 1015.75 1015.65 1015.55 1015.47 1015.42 1015.41 1015.41 1015.40 1015.36 1015.26 1015.09 1014.85 1014.57 1014.28 1014.02 1013.81 1013.67 1013.59 1013.55 1013.52 1013.45 1013.33 1013.13 1012.88 1012.59 1012.33 1012.14 1012.09 1012.21 1012.54 1013.07 1013.77 1014.60 1015.51 1016.44 1017.33 1018.16 1018.90 1019.53 1020.06
1015.76 1015.79 1015.76 1015.68 1015.58 1015.47 1015.38 1015.32 1015.31 1015.32 1015.32 1015.29 1015.20 1015.04 1014.80 1014.51 1014.19 1013.89 1013.62 1013.42 1013.27 1013.17 1013.07 1012.95 1012.78 1012.54 1012.25 1011.94 1011.65 1011.45 1011.39 1011.51 1011.85 1012.41 1013.14 1014.02 1014.97 1015.95 1016.91 1017.79 1018.59 1019.27 1019.86
1015.70 1015.71 1015.67 1015.57 1015.46 1015.34 1015.24 1015.18 1015.17 1015.18 1015.19 1015.18 1015.11 1014.97 1014.75 1014.47 1014.15 1013.83 1013.53 1013.28 1013.08 1012.91 1012.75 1012.57 1012.35 1012.08 1011.76 1011.44 1011.16 1010.97 1010.93 1011.08 1011.45 1012.03 1012.78 1013.67 1014.64 1015.63 1016.59 1017.49 1018.29 1018.99 1019.59
1015.59 1015.59 1015.53 1015.43 1015.30 1015.17 1015.06 1015.00 1014.98 1014.99 1015.02 1015.03 1014.99 1014.88 1014.70 1014.45 1014.16 1013.84 1013.54 1013.26 1013.02 1012.80 1012.59 1012.37 1012.11 1011.82 1011.50 1011.19 1010.94 1010.79 1010.79 1010.99 1011.39 1011.98 1012.74 1013.62 1014.56 1015.51 1016.42 1017.27 1018.02 1018.69 1019.26
1015.45 1015.44 1015.37 1015.26 1015.12 1014.98 1014.86 1014.78 1014.75 1014.76 1014.79 1014.82 1014.81 1014.75 1014.62 1014.43 1014.18 1013.91 1013.62 1013.35 1013.09 1012.85 1012.61 1012.35 1012.08 1011.79 1011.49 1011.22 1011.01 1010.92 1010.99 1011.23 1011.66 1012.27 1013.01 1013.84 1014.71 1015.58 1016.40 1017.15 1017.81 1018.40 1018.91
1015.28 1015.26 1015.19 1015.08 1014.93 1014.77 1014.63 1014.52 1014.47 1014.46 1014.49 1014.53 1014.56 1014.54 1014.47 1014.35 1014.16 1013.95 1013.71 1013.46 1013.22 1012.98 1012.73 1012.48 1012.21 1011.94 1011.68 1011.47 1011.33 1011.31 1011.44 1011.73 1012.18 1012.78 1013.49 1014.25 1015.03 1015.78 1016.47 1017.10 1017.64 1018.12 1018.55
1015.09 1015.08 1015.01 1014.89 1014.72 1014.54 1014.37 1014.23 1014.14 1014.11 1014.12 1014.16 1014.20 1014.22 1014.21 1014.14 1014.03 1013.88 1013.71 1013.51 1013.31 1013.10 1012.88 1012.65 1012.42 1012.20 1012.00 1011.85 1011.79 1011.84 1012.02 1012.35 1012.82 1013.39 1014.04 1014.72 1015.39 1016.02 1016.58 1017.07 1017.49 1017.85 1018.18
1014.92 1014.91 1014.84 1014.70 1014.52 1014.32 1014.11 1013.93 1013.79 1013.71 1013.68 1013.70 1013.74 1013.78 1013.80 1013.79 1013.74 1013.66 1013.55 1013.42 1013.28 1013.12 1012.95 1012.78 1012.61 1012.45 1012.32 1012.25 1012.26 1012.37 1012.60 1012.95 1013.41 1013.95 1014.53 1015.12 1015.68 1016.19 1016.62 1016.99 1017.30 1017.57 1017.82
1014.77 1014.77 1014.69 1014.55 1014.35 1014.12 1013.87 1013.63 1013.44 1013.30 1013.22 1013.20 1013.21 1013.24 1013.27 1013.29 1013.29 1013.27 1013.22 1013.15 1013.07 1012.98 1012.89 1012.79 1012.69 1012.61 1012.55 1012.55 1012.62 1012.78 1013.04 1013.39 1013.82 1014.31 1014.82 1015.32 1015.79 1016.19 1016.53 1016.81 1017.04 1017.24 1017.43
1014.69 1014.68 1014.60 1014.45 1014.23 1013.97 1013.68 1013.39 1013.14 1012.94 1012.80 1012.72 1012.68 1012.69 1012.70 1012.73 1012.74 1012.75 1012.74 1012.73 1012.71 1012.68 1012.66 1012.63 1012.62 1012.61 1012.63 1012.70 1012.81 1013.00 1013.26 1013.59 1013.98 1014.41 1014.85 1015.27 1015.65 1015.99 1016.26 1016.49 1016.68 1016.84 1017.01
1014.68 1014.67 1014.59 1014.43 1014.20 1013.91 1013.59 1013.26 1012.96 1012.70 1012.50 1012.35 1012.26 1012.22 1012.19 1012.19 1012.19 1012.20 1012.20 1012.22 1012.24 1012.27 1012.30 1012.35 1012.41 1012.47 1012.56 1012.67 1012.82 1013.02 1013.26 1013.55 1013.89 1014.25 1014.61 1014.96 1015.29 1015.57 1015.81 1016.02 1016.21 1016.37 1016.54
1014.76 1014.75 1014.67 1014.50 1014.26 1013.97 1013.63 1013.28 1012.94 1012.64 1012.39 1012.20 1012.05 1011.94 1011.86 1011.80 1011.76 1011.74 1011.73 1011.74 1011.77 1011.83 1011.91 1012.01 1012.12 1012.24 1012.38 1012.52 1012.69 1012.88 1013.09 1013.33 1013.60 1013.88 1014.17 1014.46 1014.74 1015.00 1015.23 1015.45 1015.65 1015.84 1016.03
1014.93 1014.91 1014.82 1014.66 1014.42 1014.13 1013.79 1013.44 1013.10 1012.79 1012.51 1012.28 1012.08 1011.92 1011.78 1011.66 1011.55 1011.47 1011.41 1011.39 1011.41 1011.47 1011.56 1011.69 1011.84 1012.00 1012.17 1012.33 1012.50 1012.67 1012.84 1013.02 1013.22 1013.43 1013.65 1013.89 1014.13 1014.37 1014.61 1014.84 1015.07 1015.29 1015.50
1015.14 1015.11 1015.02 1014.86 1014.63 1014.36 1014.05 1013.72 1013.40 1013.10 1012.83 1012.58 1012.36 1012.15 1011.96 1011.77 1011.60 1011.45 1011.32 1011.25 1011.22 1011.25 1011.34 1011.47 1011.63 1011.81 1012.00 1012.17 1012.33 1012.47 1012.61 1012.73 1012.86 1013.01 1013.17 1013.35 1013.55 1013.78 1014.02 1014.26 1014.51 1014.76 1014.98
1015.37 1015.32 1015.22 1015.06 1014.86 1014.61 1014.33 1014.05 1013.77 1013.51 1013.26 1013.03 1012.81 1012.58 1012.35 1012.12 1011.88 1011.66 1011.46 1011.32 1011.23 1011.22 1011.27 1011.38 1011.54 1011.72 1011.91 1012.09 1012.24 1012.36 1012.46 1012.54 1012.61 1012.70 1012.80 1012.94 1013.11 1013.31 1013.54 1013.79 1014.04 1014.29 1014.52
1015.57 1015.50 1015.38 1015.23 1015.04 1014.82 1014.58 1014.35 1014.13 1013.92 1013.72 1013.53 1013.33 1013.11 1012.87 1012.60 1012.32 1012.04 1011.78 1011.57 1011.42 1011.35 1011.36 1011.44 1011.57 1011.75 1011.93 1012.10 1012.24 1012.35 1012.42 1012.47 1012.51 1012.55 1012.61 1012.70 1012.83 1013.01 1013.22 1013.45 1013.68 1013.92 1014.13
1015.73 1015.63 1015.50 1015.33 1015.15 1014.95 1014.75 1014.57 1014.40 1014.25 1014.11 1013.97 1013.82 1013.63 1013.40 1013.13 1012.83 1012.51 1012.21 1011.94 1011.74 1011.61 1011.57 1011.60 1011.71 1011.86 1012.03 1012.19 1012.33 1012.43 1012.50 1012.53 1012.54 1012.55 1012.58 1012.64 1012.74 1012.88 1013.05 1013.25 1013.45 1013.65 1013.83
1015.85 1015.73 1015.57 1015.40 1015.21 1015.02 1014.84 1014.69 1014.56 1014.47 1014.38 1014.30 1014.20 1014.06 1013.86 1013.62 1013.33 1013.00 1012.68 1012.37 1012.12 1011.95 1011.86 1011.85 1011.92 1012.04 1012.19 1012.34 1012.48 1012.58 1012.64 1012.67 1012.68 1012.68 1012.69 1012.72 1012.79 1012.89 1013.02 1013.18 1013.33 1013.48 1013.61
1015.99 1015.84 1015.66 1015.47 1015.26 1015.07 1014.89 1014.75 1014.65 1014.59 1014.55 1014.51 1014.46 1014.37 1014.23 1014.03 1013.76 1013.46 1013.13 1012.82 1012.54 1012.33 1012.20 1012.15 1012.18 1012.26 1012.39 1012.53 1012.65 1012.76 1012.83 1012.86 1012.87 1012.87 1012.87 1012.89 1012.93 1012.99 1013.08 1013.19 1013.29 1013.38 1013.45
1016.17 1016.01 1015.82 1015.61 1015.39 1015.18 1014.99 1014.84 1014.74 1014.69 1014.67 1014.67 1014.66 1014.62 1014.52 1014.37 1014.15 1013.88 1013.58 1013.27 1012.98 1012.75 1012.58 1012.48 1012.47 1012.52 1012.61 1012.72 1012.84 1012.94 1013.01 1013.06 1013.08 1013.08 1013.08 1013.08 1013.10 1013.13 1013.18 1013.23 1013.28 1013.32 1013.33
1016.45 1016.29 1016.10 1015.89 1015.65 1015.42 1015.21 1015.04 1014.93 1014.86 1014.84 1014.85 1014.86 1014.85 1014.80 1014.69 1014.52 1014.29 1014.02 1013.73 1013.44 1013.19 1012.98 1012.85 1012.78 1012.78 1012.83 1012.91 1013.01 1013.10 1013.17 1013.22 1013.25 1013.26 1013.26 1013.26 1013.26 1013.26 1013.27 1013.28 1013.28 1013.27 1013.24
Thickness
5773 5772 5769 5766 5768 5769 5767 5765 5766 5765 5764 5764 5763 5762 5762 5761 5760 5758 5755 5751 5748 5745 5743 5743 5742 5742 5741 5739 5736 5733 5729 5725 5722 5719 5715 5712 5709 5706 5704 5701 5699 5697 5696
5769 5766 5765 5764 5765 5765 5765 5764 5764 5762 5764 5764 5762 5761 5760 5761 5760 5758 5757 5755 5750 5747 5745 5743 5743 5743 5743 5742 5740 5738 5734 5730 5725 5720 5717 5713 5709 5705 5702 5699 5696 5694 5692
5764 5762 5763 5762 5763 5762 5760 5759 5760 5760 5760 5761 5760 5759 5759 5758 5758 5756 5755 5753 5752 5750 5747 5744 5743 5743 5743 5743 5742 5740 5738 5734 5729 5723 5718 5714 5709 5705 5701 5697 5694 5691 5689
5761 5759 5760 5761 5759 5758 5757 5756 5757 5758 5759 5759 5758 5758 5758 5757 5755 5754 5754 5752 5750 5749 5748 5745 5743 5743 5743 5743 5743 5742 5740 5738 5733 5727 5720 5715 5709 5704 5700 5696 5692 5688 5686
5759 5756 5756 5756 5755 5755 5755 5756 5757 5755 5755 5754 5756 5756 5757 5756 5755 5754 5752 5750 5748 5746 5746 5745 5744 5743 5743 5743 5743 5742 5742 5740 5736 5730 5722 5715 5709 5703 5698 5693 5689 5685 5682
5755 5752 5752 5751 5752 5751 5750 5751 5749 5749 5749 5749 5753 5753 5753 5755 5755 5753 5751 5750 5747 5746 5745 5744 5744 5745 5743 5742 5742 5741 5741 5740 5737 5731 5724 5716 5709 5702 5695 5690 5685 5682 5678
5748 5746 5747 5746 5746 5746 5744 5747 5746 5746 5744 5747 5746 5747 5752 5754 5752 5749 5750 5748 5748 5745 5743 5741 5742 5742 5742 5742 5741 5740 5740 5739 5737 5732 5725 5717 5709 5701 5693 5686 5681 5677 5674
5741 5743 5741 5741 5741 5739 5739 5739 5739 5739 5741 5742 5739 5738 5739 5745 5744 5748 5747 5745 5744 5744 5743 5742 5739 5739 5739 5740 5741 5739 5738 5738 5737 5733 5726 5719 5709 5700 5690 5682 5677 5674 5670
5734 5735 5736 5736 5736 5735 5734 5734 5734 5734 5733 5736 5736 5732 5730 5730 5735 5744 5743 5742 5739 5740 5742 5739 5738 5736 5736 5738 5738 5737 5736 5736 5736 5733 5727 5718 5708 5696 5686 5679 5675 5670 5666
5729 5729 5729 5730 5730 5731 5730 5730 5734 5731 5729 5728 5730 5730 5730 5730 5724 5729 5737 5740 5738 5736 5736 5735 5735 5733 5733 5733 5732 5732 5732 5732 5732 5729 5723 5714 5704 5692 5683 5676 5672 5667 5664
5722 5722 5723 5724 5725 5726 5727 5727 5728 5727 5726 5725 5725 5725 5725 5724 5724 5720 5722 5727 5735 5737 5735 5732 5731 5729 5726 5726 5726 5725 5724 5724 5724 5721 5714 5705 5696 5687 5680 5674 5670 5666 5662
5716 5716 5716 5717 5719 5720 5722 5723 5723 5723 5723 5723 5723 5723 5722 5721 5721 5720 5718 5718 5722 5730 5730 5727 5726 5723 5720 5718 5716 5715 5714 5713 5711 5708 5702 5695 5689 5682 5677 5672 5668 5665 5661
5709 5708 5709 5710 5713 5714 5715 5717 5717 5718 5719 5719 5718 5720 5722 5722 5722 5720 5717 5715 5716 5722 5722 5724 5721 5718 5714 5710 5707 5705 5704 5703 5700 5696 5691 5686 5682 5677 5673 5670 5667 5664 5662
5703 5701 5701 5703 5706 5708 5709 5710 5711 5712 5714 5714 5716 5716 5717 5719 5720 5719 5715 5710 5706 5709 5713 5715 5716 5713 5709 5705 5700 5698 5695 5693 5691 5687 5683 5680 5677 5674 5671 5669 5667 5665 5663
5695 5695 5696 5697 5699 5701 5702 5702 5705 5705 5707 5709 5712 5713 5713 5715 5714 5715 5713 5710 5702 5698 5700 5705 5709 5708 5705 5701 5695 5694 5691 5687 5684 5681 5678 5675 5673 5671 5670 5668 5667 5666 5665
5685 5687 5688 5690 5691 5693 5694 5695 5698 5701 5701 5703 5705 5706 5706 5708 5708 5708 5708 5706 5704 5699 5696 5702 5703 5706 5703 5700 5692 5691 5689 5683 5680 5677 5675 5673 5672 5671 5670 5669 5669 5668 5668
5676 5677 5679 5680 5683 5685 5687 5688 5691 5692 5694 5697 5699 5700 5701 5702 5701 5702 5702 5701 5700 5698 5693 5696 5700 5700 5697 5696 5691 5690 5688 5683 5681 5677 5675 5673 5672 5671 5671 5671 5671 5671 5670
5667 5669 5671 5673 5675 5677 5678 5680 5682 5686 5687 5688 5690 5692 5694 5696 5696 5696 5696 5696 5696 5696 5693 5691 5692 5693 5692 5691 5690 5688 5688 5687 5686 5681 5677 5675 5674 5673 5673 5672 5672 5673 5673
5659 5661 5663 5664 5666 5668 5670 5672 5674 5676 5678 5679 5680 5682 5684 5686 5688 5689 5690 5690 5691 5694 5692 5688 5687 5689 5688 5688 5686 5686 5687 5685 5685 5684 5679 5676 5675 5674 5674 5674 5674 5675 5676
5650 5651 5653 5654 5656 5658 5660 5662 5664 5666 5667 5668 5669 5670 5672 5675 5677 5680 5683 5684 5685 5686 5686 5683 5682 5683 5682 5682 5681 5680 5679 5680 5681 5685 5681 5679 5677 5675 5674 5675 5675 5676 5677
5640 5640 5642 5644 5646 5647 5647 5648 5652 5654 5655 5656 5658 5659 5660 5661 5662 5666 5672 5674 5676 5677 5678 5677 5676 5676 5676 5675 5674 5674 5672 5673 5674 5677 5677 5678 5677 5676 5675 5674 5675 5676 5677
5629 5630 5631 5632 5633 5633 5629 5631 5636 5641 5643 5645 5647 5648 5649 5651 5651 5653 5655 5658 5661 5666 5667 5668 5668 5668 5668 5669 5668 5667 5666 5664 5663 5670 5670 5671 5675 5673 5674 5673 5671 5673 5675
5616 5618 5619 5619 5619 5616 5615 5617 5620 5627 5630 5631 5634 5637 5639 5639 5641 5644 5645 5647 5650 5651 5653 5660 5659 5659 5659 5659 5659 5659 5659 5658 5659 5663 5664 5663 5667 5666 5667 5664 5665 5667 5669
5602 5603 5604 5606 5606 5604 5602 5604 5607 5613 5616 5617 5620 5624 5626 5628 5628 5631 5635 5638 5640 5641 5644 5648 5648 5648 5648 5649 5651 5651 5651 5652 5653 5655 5657 5657 5660 5660 5662 5661 5659 5661 5662
5586 5588 5591 5592 5593 5591 5589 5591 5594 5601 5602 5604 5606 5608 5613 5615 5612 5616 5625 5626 5627 5628 5628 5629 5631 5633 5634 5637 5640 5643 5643 5644 5644 5645 5648 5651 5653 5654 5656 5656 5654 5654 5656
5572 5575 5577 5579 5580 5580 5577 5579 5581 5591 5590 5594 5594 5596 5594 5597 5598 5602 5612 5614 5614 5617 5620 5622 5621 5622 5626 5628 5630 5633 5636 5637 5637 5636 5638 5642 5644 5646 5645 5648 5650 5650 5651